Location: Bogis-Bossey
(46.3500°N, 6.1667°E)
Time: 18:31:50
(UTC+00:00)

ATLAS 3B R/B - Pass Details

Date: 17 August 2022
Orbit: 969 x 1225 km, 63.8° (Epoch: 12 September)

Event Time Altitude Azimuth Distance (km) Brightness Sun altitude
Rises 19:13:09 0° 238° (WSW) 3,737 6.0 -5.8°
Reaches altitude 10° 19:15:47 10° 243° (WSW) 2,819 5.5 -6.2°
Maximum altitude 19:22:14 50° 319° (NW) 1,345 3.8 -7.2°
Drops below altitude 10° 19:29:08 10° 34° (NNE) 3,010 5.0 -8.3°
Sets 19:32:02 0° 39° (NE) 4,010 5.6 -8.7°
